DW6283 Weather Reports


time (UTC)temp
C
wind
direction
speed
KPH
gust
KPH
rain 1hr
cm
rain 24hr
cm
rain mn
cm
humidity
%
barometer
mb
20260502190058 30 5 0.0 4.8 0.00 0.00 0.00 43 1010.3
20260502184537 29 254 0.0 6.4 0.00 0.00 0.00 44 1010.6
20260502183037 28 304 0.0 8.0 0.00 0.00 0.00 45 1010.7
20260502181519 28 348 0.0 8.0 0.00 0.00 0.00 46 1010.8
20260502163100 23 218 1.6 4.8 0.00 0.00 0.00 56 1011.1
20260502161555 23 93 0.0 1.6 0.00 0.00 0.00 57 1011.2
20260502151506 19 93 0.0 0.0 0.00 0.00 0.00 73 1010.9
20260502150106 18 93 0.0 0.0 0.00 0.00 0.00 78 1010.8
20260502123005 13 93 0.0 0.0 0.00 0.00 0.00 87 1009.1
20260502121504 13 93 0.0 0.0 0.00 0.00 0.00 87 1009.1
20260502114548 13 93 0.0 0.0 0.00 0.00 0.00 86 1009.0
20260502113026 13 93 0.0 1.6 0.00 0.00 0.00 86 1009.0
20260502111523 14 93 0.0 0.0 0.00 0.00 0.00 86 1009.1
20260502110005 14 93 0.0 0.0 0.00 0.00 0.00 86 1009.3
20260502104510 14 93 0.0 0.0 0.00 0.00 0.00 86 1009.2
20260502103108 15 93 0.0 0.0 0.00 0.00 0.00 86 1009.3
20260502101550 15 93 0.0 0.0 0.00 0.00 0.00 86 1009.5
20260502091502 16 93 0.0 1.6 0.00 0.00 0.00 83 1009.9
20260502080105 17 93 0.0 3.2 0.00 0.00 0.00 77 1010.2
20260502070025 18 111 0.0 3.2 0.00 0.00 0.00 69 1010.0
20260502064525 19 113 0.0 3.2 0.00 0.00 0.00 67 1009.9
20260502063006 20 91 0.0 4.8 0.00 0.00 0.00 65 1009.8
20260502061506 20 91 0.0 3.2 0.00 0.00 0.00 63 1009.8
20260502060048 20 91 0.0 3.2 0.00 0.00 0.00 61 1009.8
20260502054557 20 91 0.0 3.2 0.00 0.00 0.00 58 1009.8
20260502053032 20 91 0.0 3.2 0.00 0.00 0.00 56 1009.8
20260502051529 21 91 0.0 1.6 0.00 0.00 0.00 55 1009.8
20260502050012 21 91 0.0 3.2 0.00 0.00 0.00 53 1009.6
20260502044510 21 92 0.0 3.2 0.00 0.00 0.00 52 1009.6
20260502043104 22 91 0.0 4.8 0.00 0.00 0.00 50 1009.5
20260502041553 22 92 0.0 3.2 0.00 0.00 0.00 49 1009.4
20260502040035 23 92 0.0 1.6 0.00 0.00 0.00 47 1009.3
20260502034535 23 92 0.0 4.8 0.00 0.00 0.00 45 1008.9
20260502033017 24 92 0.0 3.2 0.00 0.00 0.00 43 1008.7
20260502031516 25 92 0.0 3.2 0.00 0.00 0.00 43 1008.5
20260502030109 25 92 0.0 3.2 0.00 0.00 0.00 42 1008.5
20260502024557 26 92 0.0 3.2 0.00 0.00 0.00 39 1008.4
20260502023040 27 92 0.0 6.4 0.00 0.00 0.00 37 1008.5
20260502021540 27 88 0.0 3.2 0.00 0.00 0.00 35 1008.4
20260502020021 28 89 0.0 3.2 0.00 0.00 0.00 33 1008.4
20260502014522 28 135 0.0 8.0 0.00 0.00 0.00 31 1008.4
20260502013002 29 82 0.0 11.3 0.00 0.00 0.00 29 1008.5
20260502011502 30 218 0.0 8.0 0.00 0.00 0.00 27 1008.4
20260502010052 30 88 0.0 11.3 0.00 0.00 0.00 27 1008.6
20260502004543 31 84 1.6 8.0 0.00 0.00 0.00 26 1008.6
20260502003027 31 90 0.0 6.4 0.00 0.00 0.00 27 1008.6
20260502001527 31 64 0.0 8.0 0.00 0.00 0.00 28 1008.6
20260502000005 32 82 0.0 11.3 0.00 0.00 0.00 28 1008.8
20260501234502 32 66 0.0 11.3 0.00 0.00 0.00 28 1009.0
20260501233053 33 58 0.0 9.7 0.00 0.00 0.00 28 1009.0
20260501231543 33 105 0.0 14.5 0.00 0.00 0.00 30 1009.1
20260501230010 33 52 0.0 4.8 0.00 0.00 0.00 29 1009.3
20260501224508 33 117 0.0 8.0 0.00 0.00 0.00 29 1009.5
20260501223056 33 105 0.0 8.0 0.00 0.00 0.00 30 1009.8
20260501221545 33 94 0.0 9.7 0.00 0.00 0.00 30 1010.1
20260501220026 33 160 0.0 4.8 0.00 0.00 0.00 32 1010.3
20260501214530 33 70 0.0 3.2 0.00 0.00 0.00 32 1010.5
20260501213007 32 71 0.0 4.8 0.00 0.00 0.00 32 1010.6
20260501211505 32 71 0.0 3.2 0.00 0.00 0.00 33 1010.8
20260501210002 31 239 0.0 1.6 0.00 0.00 0.00 33 1010.9
20260501204500 32 239 0.0 4.8 0.00 0.00 0.00 33 1011.0
20260501203109 32 81 0.0 3.2 0.00 0.00 0.00 33 1011.2
20260501201557 31 275 0.0 4.8 0.00 0.00 0.00 33 1011.4
20260501200053 31 275 0.0 6.4 0.00 0.00 0.00 35 1011.6
20260501194551 31 275 0.0 1.6 0.00 0.00 0.00 36 1011.8
20260501193049 30 275 0.0 3.2 0.00 0.00 0.00 38 1012.0
20260501191543 29 275 0.0 4.8 0.00 0.00 0.00 39 1012.2